Location: Newark
(21.1200°N, 73.4000°E)
Time: 18:06:05
(UTC+00:00)

Courier 1B Rocket - Pass Details

Date: 26 January 2020
Orbit: 920 x 1202 km, 28.2° (Epoch: 22 February)

Event Time Altitude Azimuth Distance (km) Brightness Sun altitude
Rises 06:16:12 0° 261° (W) 4,014 8.1 47.2°
Reaches altitude 10° 06:19:07 10° 265° (W) 3,019 7.6 47.5°
Maximum altitude 06:26:29 63° 345° (NNW) 1,192 5.9 48.0°
Drops below altitude 10° 06:33:20 10° 66° (ENE) 2,813 7.5 48.5°
Sets 06:35:58 0° 70° (ENE) 3,724 8.0 48.7°
